Find Starlink 32668

NORAD ID: 62212 Int'l Des: 2024-229 Owner: SPXS Country: US Constellation: starlink operational
LEOCIRCULAR

当前视图

正在加载3D地球...

About Starlink 32668

Starlink 32668 (NORAD 62212) is a starlink constellation satellite (v2 mini) launched Dec 4, 2024 by SPXS of US. It operates in LEO, CIRCULAR orbit with a mass of 730.00 kg.

关于 Starlink 32668

正在加载描述...

即将过境

Passes for default location (London). Set your location on the main map for personalized predictions.

高度历史

Loading altitude history...

两行轨道根数

1 62212U 24229W 26166.47398338 .00014034 00000-0 51839-3 0 9999
2 62212 43.0039 75.2471 0000811 291.7928 68.2838 15.27589038 85554
Epoch: Jun 15, 2026 • Age: 19 hours

当前状态

高度 483.1 km
速度 7.63 km/s
星下点 23.34°N, 143.84°W
发射日期 Dec 4, 2024
运行时间 1.5 years
类型 internet

技术详情

分类 Payload
质量 730.00 kg
干质量 700.00 kg
总质量 730.00 kg
长度 0.30 m
直径 4.10 m
跨度 29.00 m
形状 Box + pan
制造商 SPXS
平台类型 Starlink V2M
阶段状态 In Orbit
所有者/国家 SPXS/US

Most Searched